Погода во Власихе

Россия / Алтайский край     53°17′51″N   83°35′04″E
темп.,
°C
ветер,
м/с
пор.,
м/с
влажн.,
%
обл.,
%
осадки,
мм/ч
давл.,
гПа
погр.,
м
23 сентября, чт
чт2301:00+3зюз4789100 0.4 1021450
04:00+3зюз358985 0.1 1020428
07:00+2з239484 0.1 102179
10:00+3зюз2494100 0.0 1022512
13:00+5з3482100 0.1 1022687
16:00+7сз336983 0.1 1022907
19:00+5сз238193 0.4 1023106
22:00+1сз229532 0.1 102418
24 сентября, пт
пт2401:00+1ссз22967 0.1 102426
04:000ссз22965 0.0 102522
07:00−1ссз22945 0.0 102620
10:00+3сз33765 0.0 1027390
13:00+7зсз445180 0.0 10261500
16:00+7зсз5648100 0.1 10271523
19:00+6з364987 0.1 1027426
22:00+2з3364100 0.0 102858
25 сентября, сб
сб2501:00+2юз3563100 0.0 1027123
04:00+3юз4960100 0.0 1026267
07:00+3зюз5126199 0.0 1028462
10:00+5юз61053100 0.0 1024957
13:00+8юз81049100 0.1 10221370
16:00+7з7965100 0.2 10211109
19:00+4зюз4994100 1.7 1020704
22:00+4юз3796100 0.8 1018739
26 сентября, вс
вс2601:00+3зюз3597100 2.9 1016587
04:00+2сз4699100 0.2 1016338
07:00+1сз5898100 0.3 1016346
10:00+1зсз578699 0.1 1017649
13:00+3зсз6775100 0.3 1018977
16:00+3сз7873100 0.6 10191080
19:00+1зсз6980100 0.7 1021635
22:000з5109095 0.1 1021550
27 сентября, пн
пн2701:000зюз4897100 1.1 1021478
04:00+1с2499100 0.5 1021171
07:00+1св2499100 0.7 1023197
10:00+1в348591 0.1 1024521
13:00+4в456667 0.1 10241056
16:00+6всв555565 0.0 10231244
19:00+2св587987 0.0 1025268
22:00+1св410858 0.0 1024252